TimeEST,TemperatureF,Dew PointF,Humidity,Sea Level PressureIn,VisibilityMPH,Wind Direction,Wind SpeedMPH,Gust SpeedMPH,PrecipitationIn,Events,Conditions,WindDirDegrees,DateUTC
12:54 AM,27.0,23.0,85,30.34,10.0,Calm,Calm,-,N/A,,Clear,0,2012-11-30 05:54:00
1:54 AM,26.1,21.9,84,30.34,9.0,Calm,Calm,-,N/A,,Clear,0,2012-11-30 06:54:00
2:54 AM,27.0,21.9,81,30.35,10.0,Calm,Calm,-,N/A,,Clear,0,2012-11-30 07:54:00
3:54 AM,26.1,21.0,81,30.33,10.0,Calm,Calm,-,N/A,,Clear,0,2012-11-30 08:54:00
4:54 AM,26.1,21.9,84,30.35,10.0,Calm,Calm,-,N/A,,Partly Cloudy,0,2012-11-30 09:54:00
5:54 AM,27.0,23.0,85,30.36,10.0,Calm,Calm,-,N/A,,Overcast,0,2012-11-30 10:54:00
6:54 AM,28.0,24.1,85,30.37,10.0,Calm,Calm,-,N/A,,Overcast,0,2012-11-30 11:54:00
7:54 AM,28.9,24.1,82,30.38,9.0,Calm,Calm,-,N/A,,Overcast,0,2012-11-30 12:54:00
8:54 AM,30.9,24.1,76,30.39,10.0,Calm,Calm,-,N/A,,Overcast,0,2012-11-30 13:54:00
9:54 AM,33.1,25.0,72,30.39,10.0,Calm,Calm,-,N/A,,Overcast,0,2012-11-30 14:54:00
10:54 AM,35.1,25.0,67,30.38,10.0,Calm,Calm,-,N/A,,Overcast,0,2012-11-30 15:54:00
11:54 AM,39.0,26.1,60,30.38,10.0,Calm,Calm,-,N/A,,Partly Cloudy,0,2012-11-30 16:54:00
12:54 PM,42.1,26.1,53,30.35,10.0,SE,3.5,-,N/A,,Clear,130,2012-11-30 17:54:00
1:54 PM,45.0,25.0,46,30.32,10.0,East,6.9,-,N/A,,Clear,90,2012-11-30 18:54:00
2:54 PM,45.0,25.0,46,30.32,10.0,East,6.9,-,N/A,,Clear,80,2012-11-30 19:54:00
3:54 PM,44.1,24.1,45,30.32,10.0,East,6.9,-,N/A,,Partly Cloudy,80,2012-11-30 20:54:00
4:54 PM,43.0,25.0,49,30.33,10.0,ENE,5.8,-,N/A,,Mostly Cloudy,70,2012-11-30 21:54:00
5:54 PM,42.1,25.0,51,30.33,10.0,East,9.2,-,N/A,,Overcast,90,2012-11-30 22:54:00
6:54 PM,42.1,26.1,53,30.34,10.0,SE,8.1,-,N/A,,Mostly Cloudy,130,2012-11-30 23:54:00
7:54 PM,42.8,24.8,49,30.33,10.0,ENE,10.4,-,N/A,,Mostly Cloudy,60,2012-12-01 00:54:00
8:54 PM,42.1,26.1,53,30.34,10.0,ENE,12.7,-,N/A,,Scattered Clouds,70,2012-12-01 01:54:00
9:54 PM,41.0,26.1,55,30.35,10.0,East,11.5,-,N/A,,Mostly Cloudy,80,2012-12-01 02:54:00
10:54 PM,41.0,26.1,55,30.37,10.0,ENE,11.5,-,N/A,,Overcast,70,2012-12-01 03:54:00
11:54 PM,41.0,26.1,55,30.38,10.0,ENE,11.5,-,N/A,,Overcast,70,2012-12-01 04:54:00